• In Czech Republic
  • List of Countries
  • For 7 days
  • Water Temperature
  • Satellite Maps
  • Weather Map
  • Weather Widgets
  • user-avatar
    Login

    Hourly Weather Lezhe

    Today, 22 August, Tuesday

    Time Temperature Precipitation Wind Pressure Humidity
    00:00 +17°C° 0 mm 4 mps 737 mmHg 67%
    01:00 +17°C° 0 mm 4 mps 737 mmHg 68%
    02:00 +15°C° 0 mm 4 mps 737 mmHg 68%
    03:00 +15°C° 0 mm 4 mps 737 mmHg 68%
    04:00 +15°C° 0 mm 4 mps 737 mmHg 67%
    05:00 +17°C° 0 mm 4 mps 738 mmHg 61%
    06:00 +18°C° 0 mm 4 mps 738 mmHg 56%
    07:00 +20°C° 0 mm 5 mps 738 mmHg 50%
    08:00 +21°C° 0 mm 4 mps 738 mmHg 44%
    09:00 +23°C° 0 mm 4 mps 738 mmHg 38%
    10:00 +26°C° 0 mm 4 mps 738 mmHg 32%
    11:00 +27°C° 0 mm 4 mps 738 mmHg 30%
    12:00 +28°C° 0 mm 4 mps 738 mmHg 27%
    13:00 +29°C° 0 mm 4 mps 737 mmHg 25%
    14:00 +29°C° 0 mm 4 mps 737 mmHg 25%
    15:00 +29°C° 0 mm 4 mps 737 mmHg 26%
    16:00 +29°C° 0 mm 5 mps 737 mmHg 26%
    17:00 +27°C° 0 mm 4 mps 737 mmHg 33%
    18:00 +23°C° 0 mm 4 mps 737 mmHg 39%
    19:00 +20°C° 0 mm 4 mps 737 mmHg 46%
    20:00 +20°C° 0 mm 3 mps 737 mmHg 47%
    21:00 +19°C° 0 mm 3 mps 738 mmHg 49%
    22:00 +18°C° 0 mm 3 mps 738 mmHg 50%
    23:00 +18°C° 0 mm 3 mps 738 mmHg 52%

    Tomorrow, 23 August, Wednesday

    Time Temperature Precipitation Wind Pressure Humidity
    00:00 +17°C° 0 mm 3 mps 738 mmHg 55%
    01:00 +17°C° 0 mm 3 mps 738 mmHg 57%
    02:00 +17°C° 0 mm 3 mps 738 mmHg 58%
    03:00 +16°C° 0 mm 3 mps 738 mmHg 59%
    04:00 +16°C° 0 mm 3 mps 738 mmHg 60%
    05:00 +18°C° 0 mm 3 mps 738 mmHg 55%
    06:00 +20°C° 0 mm 3 mps 738 mmHg 50%
    07:00 +21°C° 0 mm 2 mps 739 mmHg 46%
    08:00 +24°C° 0 mm 2 mps 739 mmHg 39%
    09:00 +27°C° 0 mm 2 mps 739 mmHg 33%
    10:00 +29°C° 0 mm 2 mps 739 mmHg 27%
    11:00 +30°C° 0 mm 2 mps 739 mmHg 25%
    12:00 +30°C° 0 mm 3 mps 739 mmHg 23%
    13:00 +31°C° 0 mm 3 mps 739 mmHg 22%
    14:00 +31°C° 0 mm 3 mps 739 mmHg 23%
    15:00 +32°C° 0 mm 4 mps 738 mmHg 25%
    16:00 +30°C° 0 mm 4 mps 738 mmHg 26%
    17:00 +27°C° 0 mm 3 mps 738 mmHg 34%
    18:00 +25°C° 0 mm 2 mps 739 mmHg 41%
    19:00 +21°C° 0 mm 2 mps 739 mmHg 49%
    20:00 +20°C° 0 mm 2 mps 739 mmHg 46%
    21:00 +20°C° 0 mm 2 mps 740 mmHg 44%
    22:00 +20°C° 0 mm 2 mps 740 mmHg 42%
    23:00 +19°C° 0 mm 2 mps 740 mmHg 42%

    Day after tomorrow, 24 August, Thursday

    Time Temperature Precipitation Wind Pressure Humidity
    00:00 +19°C° 0 mm 2 mps 740 mmHg 41%
    01:00 +19°C° 0 mm 2 mps 740 mmHg 40%
    02:00 +18°C° 0 mm 2 mps 740 mmHg 41%
    03:00 +18°C° 0 mm 2 mps 740 mmHg 42%
    04:00 +18°C° 0 mm 2 mps 740 mmHg 43%
    05:00 +20°C° 0 mm 2 mps 740 mmHg 41%
    06:00 +21°C° 0 mm 2 mps 740 mmHg 40%
    07:00 +24°C° 0 mm 2 mps 740 mmHg 38%
    08:00 +27°C° 0 mm 2 mps 740 mmHg 33%
    09:00 +29°C° 0 mm 1 mps 740 mmHg 29%
    10:00 +31°C° 0 mm 1 mps 741 mmHg 25%
    11:00 +32°C° 0 mm 2 mps 740 mmHg 24%
    12:00 +34°C° 0 mm 3 mps 740 mmHg 23%
    13:00 +34°C° 0 mm 3 mps 740 mmHg 22%
    14:00 +34°C° 0 mm 4 mps 740 mmHg 23%
    15:00 +34°C° 0 mm 4 mps 740 mmHg 25%
    16:00 +33°C° 0 mm 4 mps 739 mmHg 26%
    17:00 +30°C° 0 mm 3 mps 739 mmHg 32%
    18:00 +27°C° 0 mm 2 mps 740 mmHg 39%
    19:00 +24°C° 0 mm 2 mps 740 mmHg 45%
    20:00 +24°C° 0 mm 2 mps 740 mmHg 44%
    21:00 +23°C° 0 mm 2 mps 740 mmHg 43%
    22:00 +23°C° 0 mm 2 mps 741 mmHg 42%
    23:00 +23°C° 0 mm 2 mps 741 mmHg 42%

    25 August, Friday

    Time Temperature Precipitation Wind Pressure Humidity
    00:00 +21°C° 0 mm 2 mps 741 mmHg 42%
    01:00 +21°C° 0 mm 2 mps 741 mmHg 42%
    02:00 +21°C° 0 mm 2 mps 740 mmHg 43%
    03:00 +20°C° 0 mm 2 mps 740 mmHg 43%
    04:00 +20°C° 0 mm 2 mps 740 mmHg 44%
    05:00 +23°C° 0 mm 2 mps 740 mmHg 42%
    06:00 +25°C° 0 mm 2 mps 740 mmHg 40%
    07:00 +26°C° 0 mm 2 mps 741 mmHg 37%
    08:00 +29°C° 0 mm 2 mps 741 mmHg 33%
    09:00 +31°C° 0 mm 2 mps 741 mmHg 29%
    10:00 +33°C° 0 mm 1 mps 741 mmHg 24%
    11:00 +35°C° 0 mm 2 mps 740 mmHg 23%
    12:00 +36°C° 0 mm 3 mps 740 mmHg 22%
    13:00 +37°C° 0 mm 3 mps 740 mmHg 20%
    14:00 +36°C° 0 mm 3 mps 739 mmHg 21%
    15:00 +36°C° 0 mm 4 mps 739 mmHg 22%
    16:00 +36°C° 0 mm 4 mps 739 mmHg 23%
    17:00 +33°C° 0 mm 3 mps 739 mmHg 29%
    18:00 +29°C° 0 mm 2 mps 739 mmHg 35%
    19:00 +26°C° 0 mm 2 mps 739 mmHg 41%
    20:00 +25°C° 0 mm 2 mps 739 mmHg 39%
    21:00 +25°C° 0 mm 2 mps 739 mmHg 37%
    22:00 +24°C° 0 mm 2 mps 740 mmHg 36%
    23:00 +24°C° 0 mm 2 mps 740 mmHg 35%

    26 August, Saturday

    Time Temperature Precipitation Wind Pressure Humidity
    00:00 +24°C° 0 mm 2 mps 739 mmHg 34%
    01:00 +23°C° 0 mm 2 mps 739 mmHg 33%
    02:00 +23°C° 0 mm 2 mps 739 mmHg 33%
    03:00 +23°C° 0 mm 2 mps 739 mmHg 34%
    04:00 +21°C° 0 mm 2 mps 739 mmHg 34%
    05:00 +24°C° 0 mm 2 mps 739 mmHg 33%
    06:00 +26°C° 0 mm 2 mps 739 mmHg 32%
    07:00 +27°C° 0 mm 2 mps 739 mmHg 31%
    08:00 +30°C° 0 mm 2 mps 739 mmHg 27%
    09:00 +32°C° 0 mm 1 mps 739 mmHg 23%
    10:00 +35°C° 0 mm 1 mps 739 mmHg 19%
    11:00 +36°C° 0 mm 2 mps 739 mmHg 18%
    12:00 +37°C° 0 mm 2 mps 739 mmHg 17%
    13:00 +38°C° 0 mm 3 mps 738 mmHg 16%
    14:00 +37°C° 0 mm 3 mps 738 mmHg 18%
    15:00 +37°C° 0 mm 3 mps 738 mmHg 19%
    16:00 +36°C° 0 mm 3 mps 738 mmHg 20%
    17:00 +33°C° 0 mm 3 mps 738 mmHg 26%
    18:00 +29°C° 0 mm 2 mps 738 mmHg 32%
    19:00 +26°C° 0 mm 1 mps 738 mmHg 38%
    20:00 +26°C° 0 mm 1 mps 738 mmHg 36%
    21:00 +25°C° 0 mm 2 mps 738 mmHg 33%
    22:00 +25°C° 0 mm 2 mps 738 mmHg 31%
    23:00 +25°C° 0 mm 2 mps 738 mmHg 30%

    27 August, Sunday

    Time Temperature Precipitation Wind Pressure Humidity
    00:00 +24°C° 0 mm 2 mps 738 mmHg 29%
    01:00 +24°C° 0 mm 2 mps 738 mmHg 27%
    02:00 +24°C° 0 mm 2 mps 738 mmHg 28%
    03:00 +23°C° 0 mm 2 mps 738 mmHg 28%
    04:00 +23°C° 0 mm 2 mps 738 mmHg 29%
    05:00 +25°C° 0 mm 2 mps 738 mmHg 28%
    06:00 +26°C° 0 mm 2 mps 738 mmHg 28%
    07:00 +28°C° 0 mm 2 mps 738 mmHg 28%
    08:00 +30°C° 0 mm 2 mps 738 mmHg 25%
    09:00 +33°C° 0 mm 1 mps 738 mmHg 21%
    10:00 +35°C° 0 mm 1 mps 738 mmHg 18%
    11:00 +37°C° 0 mm 2 mps 738 mmHg 17%
    12:00 +38°C° 0 mm 3 mps 737 mmHg 16%
    13:00 +38°C° 0 mm 3 mps 737 mmHg 15%
    14:00 +38°C° 0 mm 3 mps 737 mmHg 17%
    15:00 +37°C° 0 mm 3 mps 737 mmHg 18%
    16:00 +37°C° 0 mm 3 mps 736 mmHg 19%
    17:00 +34°C° 0 mm 3 mps 736 mmHg 25%
    18:00 +30°C° 0 mm 2 mps 737 mmHg 31%
    19:00 +26°C° 0 mm 1 mps 737 mmHg 36%
    20:00 +26°C° 0 mm 1 mps 737 mmHg 34%
    21:00 +26°C° 0 mm 1 mps 737 mmHg 32%
    22:00 +25°C° 0 mm 2 mps 737 mmHg 30%
    23:00 +25°C° 0 mm 2 mps 737 mmHg 30%
    Show more